De Soto, IL

8:12 PM CDT on September 26, 2016 (GMT -0500)
Southern Illinois

Weather History for KMDH - October, 2012

Change the Weather History Date:

Saturday, October 13, 2012

  Actual Average Record
Temperature  
Mean Temperature 62 °F -  
Max Temperature 79 °F 72 °F 94 °F (1928)
Min Temperature 46 °F 45 °F 22 °F (1917)
Degree Days  
Heating Degree Days 3    
Growing Degree Days 12 (Base 50)    
Moisture  
Dew Point 57 °F    
Average Humidity 83    
Maximum Humidity 100    
Minimum Humidity 58    
Precipitation  
Precipitation 0.00 in - - ()
Sea Level Pressure  
Sea Level Pressure 30.12 in    
Wind  
Wind Speed 6 mph (South)    
Max Wind Speed 21 mph    
Max Gust Speed 25 mph    
Visibility 5 miles    
Events Fog    
Averages and records for this station are not official NWS values.
T = Trace of Precipitation, MM = Missing Value Source: NWS Daily Summary

Daily Weather History Graph

Daily Weather History Graph

Search for Another Location

Airport or City:

Trip Planner

Search our weather history database for the weather conditions in past years. The results will help you decide how hot, cold, wet, or windy it might be!

Date:

Astronomy

Oct. 13, 2012 Rise Set
Actual Time 7:03 AM CDT 6:21 PM CDT
Civil Twilight 6:37 AM CDT 6:48 PM CDT
Nautical Twilight 6:07 AM CDT 7:18 PM CDT
Astronomical Twilight 5:36 AM CDT 7:48 PM CDT
Moon 4:55 AM CDT (10/13) 5:04 PM CDT (10/13)
Length of Visible Light 12h 10m
Length of Day
11h 17m
Waning Crescent, 5% of the Moon is Illuminated
Oct 13
Waning Crescent
Oct 15
New
Oct 21
First Quarter
Oct 29
Full
Nov 6
Last Quarter

Hourly Weather History & Observations

Time (CDT) Temp. Windchill Dew Point Humidity Pressure Visibility Wind Dir Wind Speed Gust Speed Precip Events Conditions
12:06 AM 48.2 °F - 46.4 °F 93% 30.25 in 0.2 mi Calm Calm - N/A Fog Fog
12:16 AM 48.2 °F - 46.4 °F 93% 30.25 in 0.5 mi Calm Calm - N/A Fog Fog
12:40 AM 48.2 °F - 46.4 °F 93% 30.25 in 3.0 mi Calm Calm - N/A   Clear
12:44 AM 48.2 °F - 46.4 °F 93% 30.24 in 1.8 mi Calm Calm - N/A   Clear
12:52 AM 48.0 °F - 46.9 °F 96% 30.25 in 0.8 mi Calm Calm - N/A   Mist
1:42 AM 46.4 °F 45.2 °F 46.4 °F 100% 30.22 in 1.0 mi ESE 3.5 mph - N/A   Clear
2:38 AM 50.0 °F - 48.2 °F 94% 30.20 in 5.0 mi SSE 3.5 mph - N/A   Scattered Clouds
3:28 AM 53.6 °F - 51.8 °F 94% 30.18 in 1.5 mi ESE 3.5 mph - N/A   Overcast
3:52 AM 54.0 °F - 53.1 °F 97% 30.17 in 1.2 mi ESE 3.5 mph - N/A   Overcast
4:39 AM 55.4 °F - 55.4 °F 100% 30.16 in 2.5 mi SSE 4.6 mph - N/A   Overcast
5:52 AM 57.0 °F - 55.9 °F 96% 30.16 in 1.8 mi South 3.5 mph - N/A   Overcast
6:19 AM 57.2 °F - 55.4 °F 94% 30.17 in 3.0 mi South 3.5 mph - N/A   Overcast
6:50 AM 57.2 °F - 55.4 °F 94% 30.17 in 4.0 mi SSE 5.8 mph - N/A   Overcast
6:52 AM 57.0 °F - 55.9 °F 96% 30.17 in 3.0 mi SSE 4.6 mph - N/A   Overcast
7:52 AM 59.0 °F - 57.0 °F 93% 30.15 in 2.5 mi South 9.2 mph - N/A   Overcast
8:52 AM 60.1 °F - 59.0 °F 96% 30.16 in 2.5 mi South 8.1 mph - N/A   Overcast
9:05 AM 60.8 °F - 59.0 °F 94% 30.16 in 3.0 mi South 6.9 mph - N/A   Overcast
9:52 AM 63.0 °F - 60.1 °F 90% 30.14 in 5.0 mi South 12.7 mph - N/A   Overcast
10:52 AM 66.0 °F - 61.0 °F 84% 30.14 in 7.0 mi SSW 13.8 mph - N/A   Overcast
11:52 AM 70.0 °F - 63.0 °F 78% 30.11 in 8.0 mi SSW 17.3 mph - N/A   Overcast
12:35 PM 73.4 °F - 64.4 °F 73% 30.10 in 7.0 mi SSW 15.0 mph 23.0 mph N/A   Scattered Clouds
12:52 PM 73.9 °F - 64.0 °F 71% 30.09 in 7.0 mi SSW 15.0 mph 25.3 mph N/A   Partly Cloudy
1:52 PM 75.9 °F - 64.0 °F 67% 30.05 in 8.0 mi SSW 17.3 mph - N/A   Partly Cloudy
2:27 PM 77.0 °F - 64.4 °F 65% 30.03 in 9.0 mi SSW 15.0 mph - N/A   Mostly Cloudy
2:52 PM 77.0 °F - 64.9 °F 66% 30.01 in 9.0 mi SSW 15.0 mph 23.0 mph N/A   Mostly Cloudy
3:52 PM 78.1 °F - 62.1 °F 58% 30.00 in 10.0 mi SSW 18.4 mph - N/A   Scattered Clouds
4:52 PM 77.0 °F - 61.0 °F 58% 29.99 in 10.0 mi SSW 16.1 mph 25.3 mph N/A   Clear
5:52 PM 75.9 °F - 62.1 °F 62% 29.96 in 10.0 mi South 12.7 mph 23.0 mph N/A   Clear
7:52 PM 72.0 °F - 61.0 °F 68% 29.95 in 10.0 mi South 11.5 mph - N/A   Clear
9:52 PM 72.0 °F - 60.1 °F 66% 29.93 in 10.0 mi South 13.8 mph - N/A   Clear
10:52 PM 72.0 °F - 60.1 °F 66% 29.90 in 10.0 mi South 20.7 mph - N/A   Clear